User: anonymous   Login
Location: Bieujac
(44.5398°N, 0.1549°W)
Time: 10:55:51
(UTC+00:00)
Language:

NOSS 3-3 (A) - Orbit

View from above orbital plane
View from above orbital plane
View from above satellite
View from above satellite

Ground track
Ground track

The orbit data is extracted from the following two-line orbital elements,

1 28537U 05004A   20019.81307383 0.00000000  00000-0  00000-0 0    02
2 28537  63.4212 294.0461 0350867 358.3319   1.6681 13.40796812    05
Epoch (UTC): 19 January 2020 19:30:49
Eccentricity: 0.0350867
inclination: 63.4212°
perigee height: 844 km
apogee height: 1369 km
right ascension of ascending node: 294.0461°
argument of perigee: 358.3319°
revolutions per day: 13.40796812
mean anomaly at epoch: 1.6681°
orbit number at epoch: 0

The dashed part of the orbit path shows where the satellite is in the earth's shadow,  

DLR